Change the Weather History Date:

Wednesday, August 13, 2014

  Actual Average Record
Temperature  
Mean Temperature 63 °F -  
Max Temperature 75 °F 81 °F 90 °F (1959)
Min Temperature 51 °F 59 °F 46 °F (1950)
Degree Days  
Heating Degree Days 2    
Growing Degree Days 13 (Base 50)    
Moisture  
Dew Point 52 °F    
Average Humidity 79    
Maximum Humidity 94    
Minimum Humidity 53    
Precipitation  
Precipitation 0.00 in - - ()
Sea Level Pressure  
Sea Level Pressure 30.00 in    
Wind  
Wind Speed 4 mph (West)    
Max Wind Speed 12 mph    
Max Gust Speed -    
Visibility 10 miles    
Events      
Averages and records for this station are not official NWS values.
T = Trace of Precipitation, MM = Missing Value Source: NWS Daily Summary

Daily Weather History Graph

Daily Weather History Graph

Search for Another Location

Airport or City:

Trip Planner

Search our weather history database for the weather conditions in past years. The results will help you decide how hot, cold, wet, or windy it might be!

Date:

Astronomy

Aug. 13, 2014 Rise Set
Actual Time 5:56 AM CDT 7:58 PM CDT
Civil Twilight 5:25 AM CDT 8:29 PM CDT
Nautical Twilight 4:47 AM CDT 9:06 PM CDT
Astronomical Twilight 4:06 AM CDT 9:48 PM CDT
Moon 9:35 PM CDT (8/13) 9:31 AM CDT (8/13)
Length of Visible Light 15h 03m
Length of Day
14h 01m
Waning Gibbous, 87% of the Moon is Illuminated
Aug 13
Waning Gibbous
Aug 17
Last Quarter
Aug 25
New
Sep 2
First Quarter
Sep 8
Full

Hourly Weather History & Observations

Time (CDT) Temp. Dew Point Humidity Pressure Visibility Wind Dir Wind Speed Gust Speed Precip Events Conditions
12:15 AM 55.4 °F 50.0 °F 82% 29.99 in 10.0 mi West 5.8 mph - N/A   Clear
12:35 AM 53.6 °F 50.0 °F 88% 29.99 in 10.0 mi Calm Calm - N/A   Clear
12:55 AM 53.6 °F 51.8 °F 94% 29.98 in 10.0 mi Calm Calm - N/A   Clear
1:15 AM 53.6 °F 50.0 °F 88% 29.98 in 10.0 mi Calm Calm - N/A   Clear
1:35 AM 51.8 °F 50.0 °F 94% 29.98 in 10.0 mi West 3.5 mph - N/A   Clear
1:55 AM 53.6 °F 50.0 °F 88% 29.98 in 10.0 mi WNW 4.6 mph - N/A   Clear
2:15 AM 53.6 °F 50.0 °F 88% 29.98 in 10.0 mi West 4.6 mph - N/A   Clear
2:35 AM 53.6 °F 50.0 °F 88% 29.98 in 10.0 mi West 6.9 mph - N/A   Clear
2:55 AM 53.6 °F 50.0 °F 88% 29.98 in 10.0 mi West 3.5 mph - N/A   Clear
3:15 AM 53.6 °F 50.0 °F 88% 29.99 in 10.0 mi Calm Calm - N/A   Clear
3:35 AM 53.6 °F 48.2 °F 82% 29.99 in 10.0 mi West 4.6 mph - N/A   Clear
3:55 AM 53.6 °F 48.2 °F 82% 29.99 in 10.0 mi West 3.5 mph - N/A   Clear
4:15 AM 53.6 °F 50.0 °F 88% 29.99 in 10.0 mi West 5.8 mph - N/A   Clear
4:35 AM 53.6 °F 50.0 °F 88% 29.99 in 10.0 mi West 3.5 mph - N/A   Clear
4:55 AM 53.6 °F 48.2 °F 82% 29.99 in 10.0 mi Calm Calm - N/A   Mostly Cloudy
5:15 AM 53.6 °F 50.0 °F 88% 29.99 in 10.0 mi Calm Calm - N/A   Overcast
5:35 AM 55.4 °F 50.0 °F 82% 29.99 in 10.0 mi WSW 3.5 mph - N/A   Overcast
5:45 AM 55.4 °F 50.0 °F 82% 30.00 in 10.0 mi WSW 5.8 mph - N/A   Mostly Cloudy
6:45 AM 57.2 °F 51.8 °F 82% 30.00 in 10.0 mi WSW 5.8 mph - N/A   Mostly Cloudy
8:45 AM 62.6 °F 55.4 °F 77% 30.02 in 10.0 mi West 11.5 mph - N/A   Mostly Cloudy
10:45 AM 69.8 °F 59.0 °F 68% 30.03 in 10.0 mi West 11.5 mph - N/A   Scattered Clouds
11:45 AM 71.6 °F 60.8 °F 69% 30.02 in 10.0 mi WNW 9.2 mph - N/A   Scattered Clouds
12:45 PM 73.4 °F 59.0 °F 61% 30.02 in 10.0 mi WNW 6.9 mph - N/A   Scattered Clouds
1:45 PM 75.2 °F 60.8 °F 61% 30.02 in 10.0 mi WNW 9.2 mph - N/A   Scattered Clouds
3:45 PM 71.6 °F 59.0 °F 64% 30.02 in 10.0 mi ENE 8.1 mph - N/A   Mostly Cloudy
4:45 PM 73.4 °F 55.4 °F 53% 30.02 in 10.0 mi East 9.2 mph - N/A   Mostly Cloudy
5:45 PM 71.6 °F 53.6 °F 53% 30.02 in 10.0 mi East 5.8 mph - N/A   Scattered Clouds
6:45 PM 69.8 °F 51.8 °F 53% 30.03 in 10.0 mi ESE 6.9 mph - N/A   Scattered Clouds
11:15 PM 53.6 °F 50.0 °F 88% 30.06 in 10.0 mi Calm Calm - N/A   Clear
11:55 PM 57.2 °F 50.0 °F 77% 30.09 in 10.0 mi ENE 5.8 mph - N/A   Clear